Location: ?????????? ???????
(55.7500°N, 37.5000°E)
Time: 19:38:10
(UTC+00:00)

Daily predictions for brighter satellites

Satellite Brightness Start Highest point End
(mag) Time Altitude Azimuth Time Altitude Azimuth Time Altitude Azimuth
Cosmos 1867 3.8 13:54:26 10° SW 13:59:54 76° NW 14:05:24 10° NE
ATLAS 2AS CENTAUR R/B 3.2 13:53:23 10° WNW 13:59:57 45° N 14:06:25 10° E
CORIOLIS 4.3 13:54:48 10° SE 13:59:58 52° ENE 14:05:09 10° N
IRS-1C 4.4 13:57:00 10° SE 14:02:02 45° ENE 14:07:06 10° N
ASTEX 1 4.1 13:58:10 10° N 14:02:56 58° WNW 14:07:42 10° SSW
Cosmos 1607 4.4 13:58:54 10° WSW 14:04:54 53° NNW 14:10:58 10° NE
Cosmos 2233 Rocket 4.3 13:59:06 10° SSE 14:05:04 46° E 14:11:04 10° NNE
Cosmos 2344 3.8 13:58:57 10° WNW 14:06:10 57° NNE 14:14:59 10° E
Cosmos 1725 Rocket 4.1 14:00:52 10° S 14:07:05 64° E 14:13:20 10° NNE
Cosmos 1943 Rocket 3.5 14:03:37 10° SSE 14:07:41 21° ESE 14:11:43 10° NE
Cosmos 2227 Rocket 3.9 14:05:16 10° WNW 14:09:30 21° NNW 14:13:45 10° NNE
Cosmos 841 Rocket 4.4 14:05:40 10° NNW 14:10:13 28° NE 14:14:45 10° ESE
Thor Agena Rocket 3.6 14:05:19 10° SSE 14:10:35 75° ENE 14:15:51 10° NNW
NOSS 3-3 (C) 4.3 14:05:10 10° WSW 14:10:47 63° NNW 14:17:43 10° NE
Cosmos 2082 Rocket 2.4 14:06:15 10° NNW 14:11:44 50° NE 14:17:11 10° ESE
Cosmos 2061 Rocket 4.3 14:06:04 10° SSE 14:12:00 47° E 14:17:55 10° NNE
Cosmos 2173 Rocket 4.1 14:08:02 10° SSW 14:14:13 83° WNW 14:20:22 10° N
Resurs 01 Rocket 3.5 14:15:24 10° ENE 14:16:44 11° NE 14:18:05 10° NNE
JB-3 4.2 14:13:51 10° NNE 14:17:44 87° ESE 14:21:32 10° SSW
Cosmos 1782 Rocket 3.8 14:13:51 10° SSE 14:18:07 48° E 14:22:23 10° NNE
ATLAS CENTAUR R/B 1.3 14:15:54 10° WSW 14:19:19 58° NW 14:22:41 10° NE
Cosmos 2278 Rocket 3.3 14:15:56 10° SSE 14:20:23 24° ESE 14:24:51 10° NE
Cosmos 2058 3.7 14:17:18 10° N 14:20:43 27° ENE 14:24:07 10° SE
Cosmos 1300 Rocket 3.7 14:16:29 10° S 14:20:45 55° E 14:25:03 10° NNE
Cosmos 921 Rocket 3.1 14:19:47 10° SSW 14:24:11 84° WNW 14:28:40 10° NNE
USA 215 3.8 14:17:44 10° SE 14:24:12 61° SSW 14:30:42 10° WNW
Cosmos 468 Rocket 4.1 14:19:44 10° NNW 14:24:51 51° NE 14:29:54 10° SE
SL-08 R/B 4.4 14:21:33 10° S 14:27:35 71° E 14:33:40 10° NNE
Cosmos 1346 Rocket 4.3 14:26:57 10° NNE 14:29:04 14° NE 14:29:44 14° ENE
MOS 1 Rocket 3.6 14:25:46 10° SE 14:29:49 38° ENE 14:34:05 10° N
GEOS 3 Rocket 4.4 14:26:04 10° NE 14:31:07 45° NNW 14:36:12 10° W
Cosmos 1975 Rocket 3.0 14:27:16 10° N 14:31:37 78° ENE 14:36:00 10° SSE
Cosmos 1908 Rocket 3.8 14:27:49 10° SSW 14:32:15 75° WNW 14:36:44 10° N
ARIANE 5 R/B 2.4 14:27:27 10° SSE 14:32:24 70° ENE 14:37:25 10° NNW
ATLAS 5 CENTAUR R/B 3.7 14:28:37 10° WNW 14:32:25 32° SW 14:36:58 10° S
Cosmos 1802 Rocket 4.2 14:28:51 10° SSW 14:35:17 82° WNW 14:41:45 10° N
Cosmos 2263 Rocket 3.9 14:31:35 10° WNW 14:35:49 21° NNW 14:40:06 10° NNE
AQUARIUS 4.2 14:31:54 10° SE 14:36:11 53° ENE 14:40:31 10° N
Cosmos 1844 Rocket 3.7 14:32:06 10° WSW 14:37:21 41° NW 14:42:40 10° NNE
SAR-Lupe-1 4.0 14:33:59 10° SSE 14:37:32 67° ENE 14:41:07 10° NNW
Cosmos 1602 3.8 14:35:53 10° N 14:38:41 31° ENE 14:41:28 10° SE
CZ-2D R/B 4.1 14:38:00 10° SE 14:41:47 34° ENE 14:45:37 10° N
Iridium 4 Rocket 4.0 14:37:12 10° SSW 14:42:02 58° W 14:46:30 10° N
USA 281 4.0 14:37:43 11° E 14:42:56 31° NE 14:48:31 10° NNW
ARIANE 6 FM1 Upper Stage 3.4 14:41:23 10° W 14:45:08 39° NNW 14:47:52 16° NE
Cosmos 1862 3.8 14:42:17 10° N 14:45:34 31° ENE 14:48:50 10° SE
Cosmos 1833 Rocket 4.4 14:41:45 10° NW 14:46:53 36° WSW 14:51:59 10° S
COSMOS 2406 3.4 14:41:26 10° NNW 14:47:01 51° NE 14:52:33 10° ESE
PSLV R/B 4.2 14:43:34 10° ESE 14:47:02 28° ENE 14:50:30 10° N
SAR-Lupe-4 3.6 14:43:47 10° SSE 14:47:22 86° WSW 14:50:59 10° NNW
Tsikada Rocket 4.4 14:42:19 10° NNW 14:48:44 70° W 14:55:02 10° S
Cosmos 2016 Rocket 4.2 14:43:04 10° SSW 14:49:23 78° WNW 14:55:50 10° N
Cosmos 407 Rocket 3.8 14:47:38 10° S 14:52:33 46° ESE 14:56:54 13° NE
IRS-P3 4.1 14:49:40 10° SSE 14:54:59 77° ENE 15:00:20 10° NNW
SL-19 R/B 4.4 14:50:20 10° SE 14:55:12 43° ENE 15:00:10 10° N
Geosat FO 3.9 14:53:02 10° SE 14:55:53 73° NE 14:58:47 10° NNW
ISS -2.0 14:54:05 10° SSW 14:56:40 21° SSE 14:58:02 16° ESE
CZ-2D R/B 2.8 14:54:52 10° SSE 14:58:02 78° WSW 15:01:12 10° NNW
TIMED 4.4 14:56:09 10° SSW 15:00:24 73° ESE 15:04:00 14° NNE
Cosmos 1812 2.6 14:59:58 10° SSE 15:02:38 33° E 15:02:46 33° E
Cosmos 540 Rocket 3.9 14:58:28 10° NNW 15:03:35 66° WSW 15:08:38 10° SSE
SMAP 3.7 15:00:21 10° S 15:04:57 59° WSW 15:09:35 10° NNW
SL-16 R/B 2.9 14:59:22 10° NNE 15:05:37 69° WNW 15:11:50 10° SSW
Cosmos 2084 Rocket 3.4 15:01:33 10° SW 15:05:45 83° NW 15:08:16 24° NE
Cosmos 44 Rocket 4.0 15:02:36 10° S 15:06:57 35° ESE 15:09:01 24° ENE
Cosmos 2297 Rocket 4.0 15:03:18 10° NW 15:07:04 18° N 15:09:36 14° NE
SPOT 1/Viking Rocket 3.5 15:02:26 10° SSE 15:07:32 62° ENE 15:12:41 10° N
Meteor 2-3 Rocket 4.1 15:04:43 10° N 15:10:08 41° ENE 15:15:27 10° SE
SJ 16-02 2.3 15:07:43 10° SSE 15:11:15 25° E 15:11:19 25° E
Cosmos 1763 Rocket 4.4 15:06:41 10° NW 15:11:44 51° WSW 15:16:42 10° S
Nadezhda 4 Rocket 4.0 15:05:56 10° N 15:12:12 61° ENE 15:18:22 10° SSE
YAOGAN 1 2.7 15:08:50 10° SE 15:12:56 48° ENE 15:17:03 10° N
Cosmos 1869 2.8 15:11:52 10° S 15:15:23 80° E 15:18:26 13° NNE
Aureole 3 Rocket 2.4 15:13:11 10° S 15:16:09 51° E 15:17:32 29° NE
Landsat 7 4.3 15:12:31 10° S 15:17:08 62° WSW 15:21:46 10° NNW
Cosmos 1892 Rocket 4.4 15:13:33 10° N 15:17:11 28° ENE 15:17:11 28° ENE
CZ-4C R/B 2.8 15:13:00 10° W 15:17:52 48° NNW 15:21:56 21° NE
Spot 4 Rocket 3.9 15:13:38 10° SSE 15:18:41 65° ENE 15:23:45 10° NNW
Cosmos 1140 Rocket 3.7 15:16:39 10° SW 15:21:48 70° WNW 15:26:38 12° NNE
RESURS DK-1 4.2 15:18:47 10° NW 15:22:21 31° WSW 15:25:54 10° S
UNK 4.1 15:21:06 10° NNE 15:25:43 67° WNW 15:30:17 10° SSW
Resurs 1-3 3.5 15:22:51 10° SSE 15:27:05 60° ENE 15:31:20 10° N
BREEZE M DEB (TANK) 4.3 15:11:45 10° W 15:27:50 55° SSW 15:30:54 23° ESE
SL-12 R/B(2) 4.4 15:20:24 10° SSW 15:28:29 66° SE 15:35:53 20° NE
Cosmos 1428 Rocket 4.4 15:24:49 10° N 15:31:05 69° ENE 15:37:23 10° SSE
CZ-4 R/B 4.4 15:27:35 10° SSE 15:31:33 81° WSW 15:35:33 10° NNW
Cosmos 304 Rocket 4.5 15:28:15 10° SSE 15:32:08 32° ESE 15:32:08 32° ESE
Cosmos 489 Rocket 4.5 15:26:40 10° NNW 15:32:59 87° WSW 15:39:13 10° SSE
Cosmos 1536 Rocket 3.5 15:29:03 10° NNW 15:33:32 88° E 15:37:57 10° SSE
Cosmos 371 Rocket 4.0 15:29:38 10° SSE 15:33:34 32° ESE 15:33:34 32° ESE
Cosmos 1400 Rocket 3.3 15:33:38 10° S 15:36:28 38° SE 15:36:28 38° SE
Okean 2 Rocket 3.1 15:37:45 10° S 15:42:00 52° E 15:42:45 46° ENE
CARTOSAT-1 3.6 15:45:24 51° ENE 15:45:24 51° ENE 15:49:25 10° N
NOAA 6 3.9 15:41:42 10° SSE 15:46:50 73° ENE 15:51:58 10° NNW
Geosat 3.9 15:45:17 25° SE 15:48:16 80° NE 15:53:18 10° NNW
Timation 2 Rocket 4.1 15:41:46 10° SSW 15:48:41 86° ESE 15:53:25 22° NE
BREEZE-M DEB (TANK) 3.8 15:46:39 10° SW 15:49:31 44° SSE 15:50:40 38° ESE
COSMO-SKYMED 1 2.9 15:50:28 42° SE 15:50:28 42° SE 15:53:35 10° S
Cosmos 1943 Rocket 2.1 15:45:05 10° SSW 15:50:42 89° ESE 15:53:47 28° NE
ATLAS 2AS CENTAUR R/B 2.6 15:44:53 10° NW 15:51:43 74° NNE 15:54:48 35° ESE
Resurs 01 Rocket 1.9 15:52:46 46° NE 15:52:46 46° NE 15:56:28 10° N
Cosmos 841 Rocket 3.6 15:47:17 10° NNW 15:52:34 77° WSW 15:57:48 10° SSE
ATLAS CENTAUR R/B 2.7 15:52:11 10° WNW 15:54:57 22° NNW 15:55:08 22° N
Cosmos 2227 Rocket 3.9 15:51:57 10° NW 15:55:41 18° N 15:56:55 17° NNE
Cosmos 2251 Rocket 3.4 15:50:28 10° SSW 15:55:45 78° ESE 15:58:11 33° NE
Cosmos 2082 Rocket 3.3 15:50:30 10° NW 15:55:48 44° WSW 16:01:04 10° S
Cosmos 2058 4.1 15:53:15 10° NNW 15:57:00 40° W 16:00:44 10° SSW
Cosmos 2278 Rocket 2.2 15:58:13 10° SW 16:03:53 82° NW 16:06:42 31° NNE
Cosmos 1346 Rocket 3.0 16:01:08 10° NNW 16:04:11 57° NNW 16:04:11 57° NNW
Cosmos 1833 4.3 16:01:02 10° NNW 16:06:39 52° NE 16:07:08 51° ENE
Cosmos 1464 Rocket 4.0 16:01:03 10° S 16:07:20 86° W 16:13:36 10° N
Meteor 2-1 Rocket 4.2 16:05:29 10° S 16:11:19 64° E 16:15:01 24° NNE
Cosmos 2344 4.0 16:13:21 10° NW 16:21:00 73° SW 16:28:28 20° SE
Cosmos 2034 Rocket 3.9 16:14:59 10° S 16:21:12 85° E 16:27:33 10° NNE
Cosmos 2263 Rocket 4.0 16:18:11 10° NW 16:21:52 17° N 16:22:33 17° NNE
Cosmos 1814 Rocket 4.1 16:17:50 10° NNW 16:22:35 59° NNE 16:22:35 59° NNE
Cosmos 1190 Rocket 4.0 16:18:31 10° SSW 16:23:49 80° WNW 16:25:14 50° NNE
ARIANE 6 FM1 Upper Stage 4.0 16:21:15 10° WNW 16:23:54 30° NNW 16:23:54 30° NNW
Cosmos 2151 Rocket 4.2 16:20:55 10° SSW 16:25:21 56° WNW 16:27:46 25° N
USA 281 3.1 16:24:35 46° SE 16:26:45 80° NE 16:33:23 10° NNW
Cosmos 676 Rocket 3.9 16:21:35 10° SSW 16:26:27 71° SSE 16:26:27 71° SSE
SKYMED 2 4.2 16:26:38 35° N 16:28:10 55° WNW 16:32:25 10° SW
Cosmos 1656 Rocket 4.4 16:23:01 10° S 16:26:36 38° SSE 16:26:36 38° SSE
Cosmos 1092 Rocket 4.0 16:23:51 10° NNW 16:30:09 82° W 16:36:21 10° S
COSMOS 2406 4.3 16:25:55 10° NW 16:31:15 43° WSW 16:36:35 10° S
Okean 1 Rocket 3.6 16:27:48 10° SSW 16:31:18 53° SW 16:31:18 53° SW
ISS -1.2 16:29:46 10° WSW 16:30:57 19° SW 16:30:57 19° SW
CSL-04 Rocket 4.3 16:36:42 43° NNE 16:36:42 43° NNE 16:40:34 10° NNW
Cosmos 2026 Rocket 4.1 16:29:12 10° NNW 16:35:14 69° W 16:41:20 10° S
Cosmos 1954 Rocket 4.0 16:31:01 10° SSW 16:36:17 77° WNW 16:36:42 72° NNW
Sich 1 Rocket 4.0 16:33:08 10° SSW 16:37:31 62° W 16:37:31 62° W
Terra 4.3 16:42:57 10° N 16:42:57 10° N 16:43:00 10° N
SPOT 5 4.4 16:46:43 28° N 16:46:43 28° N 16:49:10 10° N
Cosmos 44 Rocket 3.8 16:43:20 10° WSW 16:47:38 59° WNW 16:47:38 59° WNW
SJ 16-02 2.5 16:44:54 10° SW 16:47:54 39° WSW 16:47:54 39° WSW
Cosmos 2297 Rocket 3.7 16:48:01 10° NNW 16:51:23 26° N 16:51:23 26° N
CZ-4C R/B 3.2 17:01:52 10° WNW 17:06:53 43° N 17:06:53 43° N
BREEZE-M DEB (TANK) 4.5 16:54:16 10° WSW 17:18:50 62° S 17:19:36 60° SSE
Resurs 01 Rocket 3.9 17:30:11 23° WNW 17:30:11 23° WNW 17:32:34 10° NW
Cosmos 1943 Rocket 3.7 17:30:13 10° W 17:35:07 30° NNW 17:35:17 30° NNW
Cosmos 2227 Rocket 4.2 17:36:37 10° NNW 17:38:42 20° NNW 17:38:42 20° NNW
ATLAS 2AS CENTAUR R/B 3.5 17:36:04 10° NW 17:42:14 41° WSW 17:42:14 41° WSW
Cosmos 2278 Rocket 3.9 17:43:56 10° W 17:48:33 28° NW 17:48:33 28° NW
